User: anonymous   Login
Location: Saint Peter Port
(49.4500°N, 2.5330°W)
Time: 19:17:38
(UTC+01:00)
Language:

Cosmos 2242 Rocket - Orbit

View from above orbital plane
View from above orbital plane
View from above satellite
View from above satellite

Ground track
Ground track

The orbit data is extracted from the following two-line orbital elements,

1 22627U 93024B   17172.87975671 +.00000075 +00000-0 +71964-5 0  9999
2 22627 082.5233 095.7782 0022491 318.5071 083.3620 14.78081368302840
Epoch (UTC): 21 June 2017 21:06:50
Eccentricity: 0.0022491
inclination: 82.5233°
perigee height: 619 km
apogee height: 651 km
right ascension of ascending node: 95.7782°
argument of perigee: 318.5071°
revolutions per day: 14.78081368
mean anomaly at epoch: 83.3620°
orbit number at epoch: 30284

The dashed part of the orbit path shows where the satellite is in the earth's shadow,  

DLR